Flag for Norway Weather past 2 weeks in Fetsund, Norway

Now
57 °F

Partly sunny.


Feels Like: 56 °F
Forecast: 44 / 49 °F
Wind: 6 mph from South

Location: Oslo-Blindern

Current Time: May 29, 2015 at 6:32:23 PM

Latest Report: May 29, 2015 at 5:00 PM


Visibility: 37 mi

Pressure: 29.56 "Hg

Humidity: 46%

Dew point: 36 °F

Location of FetsundLocation

Historic Weather in Fetsund — Graph

°F

Fetsund temperature yesterday

Maximum temperature yesterday: 50 °F (at 6:00 PM)
Minimum temperature yesterday: 44 °F (at 2:00 AM)
Average temperature yesterday: 48 °F

Past Weeks' High & Low Weather Summary

 TemperatureHumidityPressure
High64 °F (May 27, 6:00 PM)98% (May 17, 12:00 AM)30.03 "Hg (May 17, 12:00 AM)
Low35 °F (May 15, 4:00 AM)25% (May 15, 4:00 PM)29.38 "Hg (May 29, 12:00 AM)
Average50 °F68%29.77 "Hg
* Reported May 14 5:00 PM — May 29 5:00 PM, Fetsund, Weather by CustomWeather, © 2015

Note: Actual official high and low records may vary slightly from our data, if they occured in-between our weather recording intervals... More about our weather records

Advertising

Fetsund weather history for previous 24 hours

 ConditionsComfort  
Time TempWeatherWind HumidityBarometerVisibility
5:00 PM
Fri, May 29
57 °FPartly sunny.6 mph46%29.56 "Hg37 mi
4:00 PM58 °FRefreshingly cool.8 mph51%29.54 "HgN/A
3:00 PM57 °FRefreshingly cool.7 mph52%29.54 "HgN/A
2:00 PM57 °FScattered clouds.7 mph46%29.54 "Hg43 mi
1:00 PM58 °FRefreshingly cool.8 mph42%29.53 "HgN/A
12:00 PM57 °FRefreshingly cool.7 mph45%29.50 "HgN/A
11:00 AM56 °FScattered clouds.7 mph48%29.50 "Hg47 mi
10:00 AM54 °FCool.6 mph53%29.50 "HgN/A
9:00 AM52 °FCool.5 mph59%29.50 "HgN/A
8:00 AM47 °FScattered clouds.3 mph74%29.50 "Hg47 mi
7:00 AM46 °FCool.5 mph81%29.47 "HgN/A
6:00 AM43 °FQuite cool.5 mph96%29.47 "HgN/A
5:00 AM42 °FRain. Partly sunny.2 mph96%29.44 "Hg16 mi
4:00 AM42 °FQuite cool.5 mph95%29.44 "HgN/A
3:00 AM43 °FQuite cool.5 mph85%29.44 "HgN/A
2:00 AM45 °FPassing clouds.7 mph81%29.41 "Hg19 mi
12:00 AM47 °FCool.3 mph76%29.38 "HgN/A
10:00 PM
Thu, May 28
48 °FCool.5 mph90%29.41 "HgN/A
9:00 PM48 °FCool.6 mph85%29.44 "HgN/A
8:00 PM49 °FCool.5 mph86%29.44 "HgN/A
7:00 PM49 °FCool.5 mph83%29.44 "HgN/A
6:00 PM50 °FCool.3 mph89%29.47 "HgN/A
Weather by CustomWeather, © 2015

See weather overviewHow to use our weather pages